Time,TemperatureF,DewpointF,PressureIn,WindDirection,WindDirectionDegrees,WindSpeedMPH,WindSpeedGustMPH,Humidity,HourlyPrecipIn,Conditions,Clouds,dailyrainin,SoftwareType,DateUTC
2013-04-29 00:03:00,56.3,54.0,29.93,SW,231,0.0,0.0,92,0.00,,,0.00,Wunderground v.1.15,2013-04-29 05:03:00,
2013-04-29 00:08:00,56.2,53.9,29.93,SW,218,0.0,2.0,92,0.00,,,0.00,Wunderground v.1.15,2013-04-29 05:08:00,
2013-04-29 00:13:00,56.1,54.1,29.93,WSW,248,0.0,0.0,93,0.00,,,0.00,Wunderground v.1.15,2013-04-29 05:13:00,
2013-04-29 00:18:00,56.0,54.0,29.93,WSW,248,0.0,0.0,93,0.00,,,0.00,Wunderground v.1.15,2013-04-29 05:18:00,
2013-04-29 00:23:00,56.0,54.0,29.94,WSW,248,0.0,0.0,93,0.00,,,0.00,Wunderground v.1.15,2013-04-29 05:23:00,
2013-04-29 00:29:00,55.8,53.8,29.94,WSW,248,0.0,0.0,93,0.00,,,0.00,Wunderground v.1.15,2013-04-29 05:29:00,
2013-04-29 00:34:00,55.7,53.7,29.94,WSW,248,0.0,0.0,93,0.00,,,0.00,Wunderground v.1.15,2013-04-29 05:34:00,
2013-04-29 00:40:00,55.8,53.8,29.94,West,266,0.0,1.0,93,0.00,,,0.00,Wunderground v.1.15,2013-04-29 05:40:00,
2013-04-29 00:45:00,55.8,53.8,29.94,West,266,0.0,1.0,93,0.00,,,0.00,Wunderground v.1.15,2013-04-29 05:45:00,
2013-04-29 00:50:00,55.8,53.8,29.94,WNW,286,0.0,0.0,93,0.00,,,0.00,Wunderground v.1.15,2013-04-29 05:50:00,
2013-04-29 00:55:00,55.8,53.8,29.94,WNW,287,0.0,0.0,93,0.00,,,0.00,Wunderground v.1.15,2013-04-29 05:55:00,
2013-04-29 01:00:00,55.7,53.7,29.94,WNW,287,0.0,0.0,93,0.00,,,0.00,Wunderground v.1.15,2013-04-29 06:00:00,
2013-04-29 01:06:00,55.7,53.7,29.93,SW,214,0.0,0.0,93,0.00,,,0.00,Wunderground v.1.15,2013-04-29 06:06:00,
2013-04-29 01:11:00,55.7,53.7,29.93,WSW,246,0.0,0.0,93,0.00,,,0.00,Wunderground v.1.15,2013-04-29 06:11:00,
2013-04-29 01:16:00,55.6,53.6,29.93,WSW,242,0.0,0.0,93,0.00,,,0.00,Wunderground v.1.15,2013-04-29 06:16:00,
2013-04-29 01:22:00,55.5,53.5,29.93,WSW,242,0.0,0.0,93,0.00,,,0.00,Wunderground v.1.15,2013-04-29 06:22:00,
2013-04-29 01:27:00,55.4,53.4,29.93,WSW,242,0.0,0.0,93,0.00,,,0.00,Wunderground v.1.15,2013-04-29 06:27:00,
2013-04-29 01:32:00,55.3,53.6,29.93,WSW,243,0.0,0.0,94,0.00,,,0.00,Wunderground v.1.15,2013-04-29 06:32:00,
2013-04-29 01:37:00,55.3,53.6,29.93,WSW,243,0.0,0.0,94,0.00,,,0.00,Wunderground v.1.15,2013-04-29 06:37:00,
2013-04-29 01:43:00,55.2,53.5,29.93,SW,231,0.0,0.0,94,0.00,,,0.00,Wunderground v.1.15,2013-04-29 06:43:00,
2013-04-29 01:48:00,55.2,53.5,29.93,West,277,0.0,0.0,94,0.00,,,0.00,Wunderground v.1.15,2013-04-29 06:48:00,
2013-04-29 01:53:00,55.3,53.6,29.93,West,263,0.0,2.0,94,0.00,,,0.00,Wunderground v.1.15,2013-04-29 06:53:00,
2013-04-29 01:58:00,55.4,53.4,29.93,WSW,245,0.0,2.0,93,0.00,,,0.00,Wunderground v.1.15,2013-04-29 06:58:00,
2013-04-29 02:04:00,55.4,53.4,29.93,WSW,246,0.0,3.0,93,0.00,,,0.00,Wunderground v.1.15,2013-04-29 07:04:00,
2013-04-29 02:09:00,55.5,53.5,29.93,West,276,1.0,3.0,93,0.00,,,0.00,Wunderground v.1.15,2013-04-29 07:09:00,
2013-04-29 02:14:00,55.5,53.2,29.92,SW,224,1.0,2.0,92,0.00,,,0.00,Wunderground v.1.15,2013-04-29 07:14:00,
2013-04-29 02:19:00,55.5,53.2,29.92,West,263,1.0,2.0,92,0.00,,,0.00,Wunderground v.1.15,2013-04-29 07:19:00,
2013-04-29 02:24:00,55.5,53.2,29.92,WSW,256,1.0,3.0,92,0.00,,,0.00,Wunderground v.1.15,2013-04-29 07:24:00,
2013-04-29 02:30:00,55.5,53.2,29.92,WSW,252,1.0,1.0,92,0.00,,,0.00,Wunderground v.1.15,2013-04-29 07:30:00,
2013-04-29 02:35:00,55.4,53.1,29.92,West,261,1.0,2.0,92,0.00,,,0.00,Wunderground v.1.15,2013-04-29 07:35:00,
2013-04-29 02:40:00,55.3,53.0,29.92,WSW,243,0.0,0.0,92,0.00,,,0.00,Wunderground v.1.15,2013-04-29 07:40:00,
2013-04-29 02:45:00,55.2,52.9,29.92,WSW,248,0.0,1.0,92,0.00,,,0.00,Wunderground v.1.15,2013-04-29 07:45:00,
2013-04-29 02:50:00,55.0,52.7,29.92,West,260,0.0,0.0,92,0.00,,,0.00,Wunderground v.1.15,2013-04-29 07:50:00,
2013-04-29 02:55:00,54.6,52.3,29.92,WSW,242,0.0,0.0,92,0.00,,,0.00,Wunderground v.1.15,2013-04-29 07:55:00,
2013-04-29 03:00:00,54.4,52.4,29.92,WSW,245,0.0,0.0,93,0.00,,,0.00,Wunderground v.1.15,2013-04-29 08:00:00,
2013-04-29 03:06:00,54.0,52.0,29.92,WSW,245,0.0,0.0,93,0.00,,,0.00,Wunderground v.1.15,2013-04-29 08:06:00,
2013-04-29 03:11:00,53.7,51.7,29.92,WSW,245,0.0,0.0,93,0.00,,,0.00,Wunderground v.1.15,2013-04-29 08:11:00,
2013-04-29 03:16:00,53.5,51.8,29.93,WSW,245,0.0,0.0,94,0.00,,,0.00,Wunderground v.1.15,2013-04-29 08:16:00,
2013-04-29 03:21:00,53.3,51.6,29.93,WSW,245,0.0,0.0,94,0.00,,,0.00,Wunderground v.1.15,2013-04-29 08:21:00,
2013-04-29 03:26:00,53.1,51.4,29.93,WSW,245,0.0,0.0,94,0.00,,,0.00,Wunderground v.1.15,2013-04-29 08:26:00,
2013-04-29 03:31:00,53.0,51.6,29.93,WSW,245,0.0,0.0,95,0.00,,,0.00,Wunderground v.1.15,2013-04-29 08:31:00,
2013-04-29 03:37:00,53.0,51.6,29.93,WSW,245,0.0,0.0,95,0.00,,,0.00,Wunderground v.1.15,2013-04-29 08:37:00,
2013-04-29 03:42:00,53.0,51.6,29.93,WSW,245,0.0,0.0,95,0.00,,,0.00,Wunderground v.1.15,2013-04-29 08:42:00,
2013-04-29 03:47:00,53.0,51.6,29.93,WSW,245,0.0,0.0,95,0.00,,,0.00,Wunderground v.1.15,2013-04-29 08:47:00,
2013-04-29 03:52:00,53.0,51.6,29.93,WSW,245,0.0,0.0,95,0.00,,,0.00,Wunderground v.1.15,2013-04-29 08:52:00,
2013-04-29 03:57:00,52.8,51.4,29.93,WSW,245,0.0,0.0,95,0.00,,,0.00,Wunderground v.1.15,2013-04-29 08:57:00,
2013-04-29 04:03:00,52.6,51.2,29.93,WSW,245,0.0,0.0,95,0.00,,,0.00,Wunderground v.1.15,2013-04-29 09:03:00,
2013-04-29 04:08:00,52.4,51.0,29.93,WSW,245,0.0,0.0,95,0.00,,,0.00,Wunderground v.1.15,2013-04-29 09:08:00,
2013-04-29 04:13:00,52.5,51.4,29.93,WSW,245,0.0,0.0,96,0.00,,,0.00,Wunderground v.1.15,2013-04-29 09:13:00,
2013-04-29 04:18:00,52.7,51.6,29.94,WSW,245,0.0,0.0,96,0.00,,,0.00,Wunderground v.1.15,2013-04-29 09:18:00,
2013-04-29 04:24:00,52.7,51.6,29.94,WSW,245,0.0,0.0,96,0.00,,,0.00,Wunderground v.1.15,2013-04-29 09:24:00,
2013-04-29 04:30:00,52.6,51.5,29.94,WSW,245,0.0,0.0,96,0.00,,,0.00,Wunderground v.1.15,2013-04-29 09:30:00,
2013-04-29 04:35:00,52.5,51.4,29.94,SSW,205,0.0,0.0,96,0.00,,,0.00,Wunderground v.1.15,2013-04-29 09:35:00,
2013-04-29 04:40:00,52.3,51.2,29.94,SE,136,0.0,0.0,96,0.00,,,0.00,Wunderground v.1.15,2013-04-29 09:40:00,
2013-04-29 04:45:00,52.1,51.0,29.95,SE,136,0.0,0.0,96,0.00,,,0.00,Wunderground v.1.15,2013-04-29 09:45:00,
2013-04-29 04:51:00,51.8,50.7,29.95,SE,136,0.0,0.0,96,0.00,,,0.00,Wunderground v.1.15,2013-04-29 09:51:00,
2013-04-29 04:56:00,51.5,50.4,29.95,SE,136,0.0,0.0,96,0.00,,,0.00,Wunderground v.1.15,2013-04-29 09:56:00,
2013-04-29 05:02:00,51.2,50.1,29.95,SE,136,0.0,0.0,96,0.00,,,0.00,Wunderground v.1.15,2013-04-29 10:02:00,
2013-04-29 05:07:00,51.1,50.0,29.95,SE,136,0.0,0.0,96,0.00,,,0.00,Wunderground v.1.15,2013-04-29 10:07:00,
2013-04-29 05:12:00,51.0,49.9,29.95,SE,136,0.0,0.0,96,0.00,,,0.00,Wunderground v.1.15,2013-04-29 10:12:00,
2013-04-29 05:17:00,50.9,49.8,29.95,SE,136,0.0,0.0,96,0.00,,,0.00,Wunderground v.1.15,2013-04-29 10:17:00,
2013-04-29 05:22:00,50.7,49.6,29.95,SE,136,0.0,0.0,96,0.00,,,0.00,Wunderground v.1.15,2013-04-29 10:22:00,
2013-04-29 05:27:00,50.5,49.4,29.95,SE,136,0.0,0.0,96,0.00,,,0.00,Wunderground v.1.15,2013-04-29 10:27:00,
2013-04-29 05:32:00,50.1,49.0,29.95,SE,136,0.0,0.0,96,0.00,,,0.00,Wunderground v.1.15,2013-04-29 10:32:00,
2013-04-29 05:38:00,49.9,48.8,29.95,SE,136,0.0,0.0,96,0.00,,,0.00,Wunderground v.1.15,2013-04-29 10:38:00,
2013-04-29 05:43:00,49.6,48.5,29.96,SE,136,0.0,0.0,96,0.00,,,0.00,Wunderground v.1.15,2013-04-29 10:43:00,
2013-04-29 05:48:00,49.5,48.4,29.96,SE,136,0.0,0.0,96,0.00,,,0.00,Wunderground v.1.15,2013-04-29 10:48:00,
2013-04-29 05:53:00,49.4,48.3,29.96,SE,137,0.0,0.0,96,0.00,,,0.00,Wunderground v.1.15,2013-04-29 10:53:00,
2013-04-29 05:59:00,49.2,48.4,29.96,SE,136,0.0,0.0,97,0.00,,,0.00,Wunderground v.1.15,2013-04-29 10:59:00,
2013-04-29 06:04:00,49.3,48.5,29.96,SE,136,0.0,0.0,97,0.00,,,0.00,Wunderground v.1.15,2013-04-29 11:04:00,
2013-04-29 06:09:00,49.2,48.4,29.96,SE,136,0.0,0.0,97,0.00,,,0.00,Wunderground v.1.15,2013-04-29 11:09:00,
2013-04-29 06:14:00,49.2,48.4,29.96,SE,136,0.0,0.0,97,0.00,,,0.00,Wunderground v.1.15,2013-04-29 11:14:00,
2013-04-29 06:19:00,49.3,48.5,29.96,SE,136,0.0,0.0,97,0.00,,,0.00,Wunderground v.1.15,2013-04-29 11:19:00,
2013-04-29 06:25:00,49.6,48.8,29.97,SE,136,0.0,0.0,97,0.00,,,0.00,Wunderground v.1.15,2013-04-29 11:25:00,
2013-04-29 06:30:00,50.0,49.2,29.97,SE,136,0.0,0.0,97,0.00,,,0.00,Wunderground v.1.15,2013-04-29 11:30:00,
2013-04-29 06:35:00,50.3,49.5,29.97,SE,136,0.0,0.0,97,0.00,,,0.00,Wunderground v.1.15,2013-04-29 11:35:00,
2013-04-29 06:40:00,50.8,50.0,29.97,SE,136,0.0,0.0,97,0.00,,,0.00,Wunderground v.1.15,2013-04-29 11:40:00,
2013-04-29 06:45:00,51.2,50.4,29.98,SE,136,0.0,0.0,97,0.00,,,0.00,Wunderground v.1.15,2013-04-29 11:45:00,
2013-04-29 06:51:00,52.2,51.4,29.98,SE,136,0.0,0.0,97,0.00,,,0.00,Wunderground v.1.15,2013-04-29 11:51:00,
2013-04-29 06:56:00,52.8,52.0,29.98,SE,136,0.0,0.0,97,0.00,,,0.00,Wunderground v.1.15,2013-04-29 11:56:00,
2013-04-29 07:02:00,53.1,52.3,29.98,SE,136,0.0,0.0,97,0.00,,,0.00,Wunderground v.1.15,2013-04-29 12:02:00,
2013-04-29 07:07:00,53.7,52.9,29.98,SE,136,0.0,0.0,97,0.00,,,0.00,Wunderground v.1.15,2013-04-29 12:07:00,
2013-04-29 07:12:00,53.9,53.1,29.98,ESE,103,0.0,0.0,97,0.00,,,0.00,Wunderground v.1.15,2013-04-29 12:12:00,
2013-04-29 07:17:00,54.2,53.4,29.98,ESE,120,0.0,0.0,97,0.00,,,0.00,Wunderground v.1.15,2013-04-29 12:17:00,
2013-04-29 07:22:00,55.0,54.2,29.98,ESE,120,0.0,0.0,97,0.00,,,0.00,Wunderground v.1.15,2013-04-29 12:22:00,
2013-04-29 07:27:00,56.1,55.3,29.98,ESE,119,0.0,0.0,97,0.00,,,0.00,Wunderground v.1.15,2013-04-29 12:27:00,
2013-04-29 07:32:00,57.0,55.9,29.99,SSW,210,0.0,0.0,96,0.00,,,0.00,Wunderground v.1.15,2013-04-29 12:32:00,
2013-04-29 07:37:00,57.4,56.0,29.99,SW,217,0.0,0.0,95,0.00,,,0.00,Wunderground v.1.15,2013-04-29 12:37:00,
2013-04-29 07:43:00,57.5,55.8,29.99,South,174,0.0,2.0,94,0.00,,,0.00,Wunderground v.1.15,2013-04-29 12:43:00,
2013-04-29 07:48:00,57.6,55.6,29.99,WSW,257,1.0,3.0,93,0.00,,,0.00,Wunderground v.1.15,2013-04-29 12:48:00,
2013-04-29 07:53:00,57.9,55.9,29.98,SSW,198,1.0,4.0,93,0.00,,,0.00,Wunderground v.1.15,2013-04-29 12:53:00,
2013-04-29 07:58:00,58.5,56.5,29.98,SSE,158,1.0,4.0,93,0.00,,,0.00,Wunderground v.1.15,2013-04-29 12:58:00,
2013-04-29 08:04:00,59.3,56.7,29.98,WSW,255,0.0,1.0,91,0.00,,,0.00,Wunderground v.1.15,2013-04-29 13:04:00,
2013-04-29 08:09:00,59.7,57.1,29.98,WSW,242,0.0,2.0,91,0.00,,,0.00,Wunderground v.1.15,2013-04-29 13:09:00,
2013-04-29 08:14:00,60.2,56.6,29.98,SE,146,0.0,2.0,88,0.00,,,0.00,Wunderground v.1.15,2013-04-29 13:14:00,
2013-04-29 08:20:00,60.4,56.8,29.98,WSW,245,1.0,1.0,88,0.00,,,0.00,Wunderground v.1.15,2013-04-29 13:20:00,
2013-04-29 08:26:00,60.6,57.0,29.98,SSE,152,1.0,2.0,88,0.00,,,0.00,Wunderground v.1.15,2013-04-29 13:26:00,
2013-04-29 08:31:00,60.7,57.1,29.98,SSW,204,1.0,1.0,88,0.00,,,0.00,Wunderground v.1.15,2013-04-29 13:31:00,
2013-04-29 08:36:00,60.9,57.3,29.98,WSW,256,1.0,3.0,88,0.00,,,0.00,Wunderground v.1.15,2013-04-29 13:36:00,
2013-04-29 08:42:00,60.7,56.8,29.98,South,174,1.0,4.0,87,0.00,,,0.00,Wunderground v.1.15,2013-04-29 13:42:00,
2013-04-29 08:47:00,60.8,56.9,29.98,SW,221,2.0,8.0,87,0.00,,,0.00,Wunderground v.1.15,2013-04-29 13:47:00,
2013-04-29 08:52:00,61.0,57.4,29.98,SSE,160,2.0,3.0,88,0.00,,,0.00,Wunderground v.1.15,2013-04-29 13:52:00,
2013-04-29 08:58:00,61.4,57.5,29.98,SSE,152,3.0,6.0,87,0.00,,,0.00,Wunderground v.1.15,2013-04-29 13:58:00,
2013-04-29 09:03:00,61.6,57.7,29.98,WSW,249,3.0,6.0,87,0.00,,,0.00,Wunderground v.1.15,2013-04-29 14:03:00,
2013-04-29 09:08:00,61.8,57.2,29.97,SW,221,3.0,6.0,85,0.00,,,0.00,Wunderground v.1.15,2013-04-29 14:08:00,
2013-04-29 09:13:00,61.8,57.2,29.97,WSW,257,3.0,5.0,85,0.00,,,0.00,Wunderground v.1.15,2013-04-29 14:13:00,
2013-04-29 09:19:00,62.0,57.4,29.98,SSW,198,3.0,5.0,85,0.00,,,0.00,Wunderground v.1.15,2013-04-29 14:19:00,
2013-04-29 09:24:00,62.4,57.5,29.98,WSW,247,2.0,6.0,84,0.00,,,0.00,Wunderground v.1.15,2013-04-29 14:24:00,
2013-04-29 09:30:00,62.8,57.6,29.98,SW,231,2.0,2.0,83,0.00,,,0.00,Wunderground v.1.15,2013-04-29 14:30:00,
2013-04-29 09:35:00,63.2,57.9,29.97,ENE,67,2.0,6.0,83,0.00,,,0.00,Wunderground v.1.15,2013-04-29 14:35:00,
2013-04-29 09:40:00,63.5,58.6,29.97,SW,221,2.0,2.0,84,0.00,,,0.00,Wunderground v.1.15,2013-04-29 14:40:00,
2013-04-29 09:45:00,63.5,57.9,29.97,SW,218,2.0,3.0,82,0.00,,,0.00,Wunderground v.1.15,2013-04-29 14:45:00,
2013-04-29 09:50:00,64.0,58.7,29.97,SSW,212,2.0,3.0,83,0.00,,,0.00,Wunderground v.1.15,2013-04-29 14:50:00,
2013-04-29 09:55:00,64.4,58.1,29.97,SSW,198,2.0,6.0,80,0.00,,,0.00,Wunderground v.1.15,2013-04-29 14:55:00,
2013-04-29 10:00:00,64.3,58.0,29.97,SW,221,3.0,4.0,80,0.00,,,0.00,Wunderground v.1.15,2013-04-29 15:00:00,
2013-04-29 10:06:00,64.5,57.8,29.97,WSW,245,4.0,7.0,79,0.00,,,0.00,Wunderground v.1.15,2013-04-29 15:06:00,
2013-04-29 10:11:00,64.9,58.9,29.97,SW,215,3.0,5.0,81,0.00,,,0.00,Wunderground v.1.15,2013-04-29 15:11:00,
2013-04-29 10:16:00,65.2,58.2,29.97,East,99,2.0,5.0,78,0.00,,,0.00,Wunderground v.1.15,2013-04-29 15:16:00,
2013-04-29 10:21:00,65.4,58.0,29.97,SSE,158,3.0,3.0,77,0.00,,,0.00,Wunderground v.1.15,2013-04-29 15:21:00,
2013-04-29 10:26:00,65.8,58.0,29.97,West,280,3.0,4.0,76,0.00,,,0.00,Wunderground v.1.15,2013-04-29 15:26:00,
2013-04-29 10:31:00,65.8,57.3,29.97,NW,316,3.0,4.0,74,0.00,,,0.00,Wunderground v.1.15,2013-04-29 15:31:00,
2013-04-29 10:36:00,65.9,58.1,29.97,NW,304,4.0,8.0,76,0.00,,,0.00,Wunderground v.1.15,2013-04-29 15:36:00,
2013-04-29 10:41:00,66.2,57.7,29.97,SE,136,3.0,4.0,74,0.00,,,0.00,Wunderground v.1.15,2013-04-29 15:41:00,
2013-04-29 10:47:00,66.3,58.1,29.97,SSW,207,3.0,7.0,75,0.00,,,0.00,Wunderground v.1.15,2013-04-29 15:47:00,
2013-04-29 10:52:00,66.8,57.9,29.97,West,260,3.0,6.0,73,0.00,,,0.00,Wunderground v.1.15,2013-04-29 15:52:00,
2013-04-29 10:57:00,67.0,58.8,29.97,SSE,163,2.0,6.0,75,0.00,,,0.00,Wunderground v.1.15,2013-04-29 15:57:00,
2013-04-29 11:03:00,67.3,58.3,29.97,SSW,194,3.0,4.0,73,0.00,,,0.00,Wunderground v.1.15,2013-04-29 16:03:00,
2013-04-29 11:08:00,67.6,58.6,29.97,West,264,2.0,5.0,73,0.00,,,0.00,Wunderground v.1.15,2013-04-29 16:08:00,
2013-04-29 11:13:00,67.6,59.0,29.97,NE,53,2.0,6.0,74,0.00,,,0.00,Wunderground v.1.15,2013-04-29 16:13:00,
2013-04-29 11:19:00,67.7,58.0,29.97,SSW,210,3.0,7.0,71,0.00,,,0.00,Wunderground v.1.15,2013-04-29 16:19:00,
2013-04-29 11:24:00,67.6,58.2,29.97,North,353,4.0,7.0,72,0.00,,,0.00,Wunderground v.1.15,2013-04-29 16:24:00,
2013-04-29 11:30:00,67.7,58.7,29.97,SW,221,4.0,6.0,73,0.00,,,0.00,Wunderground v.1.15,2013-04-29 16:30:00,
2013-04-29 11:35:00,68.1,59.1,29.97,West,272,3.0,6.0,73,0.00,,,0.00,Wunderground v.1.15,2013-04-29 16:35:00,
2013-04-29 11:40:00,68.3,58.9,29.97,WSW,239,3.0,6.0,72,0.00,,,0.00,Wunderground v.1.15,2013-04-29 16:40:00,
2013-04-29 11:46:00,68.6,58.8,29.96,SW,222,3.0,8.0,71,0.00,,,0.00,Wunderground v.1.15,2013-04-29 16:46:00,
2013-04-29 11:52:00,68.9,58.3,29.96,ESE,103,3.0,5.0,69,0.00,,,0.00,Wunderground v.1.15,2013-04-29 16:52:00,
2013-04-29 11:57:00,68.8,58.2,29.96,WSW,253,4.0,7.0,69,0.00,,,0.00,Wunderground v.1.15,2013-04-29 16:57:00,
2013-04-29 12:03:00,68.9,58.7,29.96,West,262,4.0,7.0,70,0.00,,,0.00,Wunderground v.1.15,2013-04-29 17:03:00,
2013-04-29 12:08:00,69.3,58.3,29.95,SW,226,4.0,7.0,68,0.00,,,0.00,Wunderground v.1.15,2013-04-29 17:08:00,
2013-04-29 12:13:00,69.6,58.6,29.95,WSW,252,3.0,5.0,68,0.00,,,0.00,Wunderground v.1.15,2013-04-29 17:13:00,
2013-04-29 12:18:00,69.8,58.8,29.95,ESE,121,3.0,10.0,68,0.00,,,0.00,Wunderground v.1.15,2013-04-29 17:18:00,
2013-04-29 12:23:00,69.9,56.7,29.95,SSE,159,3.0,6.0,63,0.00,,,0.00,Wunderground v.1.15,2013-04-29 17:23:00,
2013-04-29 12:28:00,70.3,57.1,29.95,WSW,239,3.0,6.0,63,0.00,,,0.00,Wunderground v.1.15,2013-04-29 17:28:00,
2013-04-29 12:34:00,70.9,58.5,29.94,South,169,2.0,3.0,65,0.00,,,0.00,Wunderground v.1.15,2013-04-29 17:34:00,
2013-04-29 12:39:00,70.9,58.5,29.94,SSW,211,3.0,4.0,65,0.00,,,0.00,Wunderground v.1.15,2013-04-29 17:39:00,
2013-04-29 12:45:00,70.6,58.3,29.94,ENE,71,3.0,8.0,65,0.00,,,0.00,Wunderground v.1.15,2013-04-29 17:45:00,
2013-04-29 12:50:00,70.3,58.0,29.94,SSE,149,4.0,5.0,65,0.00,,,0.00,Wunderground v.1.15,2013-04-29 17:50:00,
2013-04-29 12:55:00,70.6,58.7,29.93,WSW,238,3.0,5.0,66,0.00,,,0.00,Wunderground v.1.15,2013-04-29 17:55:00,
2013-04-29 13:00:00,70.7,58.4,29.93,West,271,3.0,3.0,65,0.00,,,0.00,Wunderground v.1.15,2013-04-29 18:00:00,
2013-04-29 13:06:00,70.8,58.9,29.93,SSE,165,4.0,6.0,66,0.00,,,0.00,Wunderground v.1.15,2013-04-29 18:06:00,
2013-04-29 13:11:00,71.0,58.6,29.93,SSW,200,4.0,6.0,65,0.00,,,0.00,Wunderground v.1.15,2013-04-29 18:11:00,
2013-04-29 13:17:00,70.7,58.4,29.93,SW,229,5.0,6.0,65,0.00,,,0.00,Wunderground v.1.15,2013-04-29 18:17:00,
2013-04-29 13:22:00,71.2,58.8,29.93,SSE,165,4.0,6.0,65,0.00,,,0.00,Wunderground v.1.15,2013-04-29 18:22:00,
2013-04-29 13:27:00,71.6,59.6,29.93,South,186,3.0,7.0,66,0.00,,,0.00,Wunderground v.1.15,2013-04-29 18:27:00,
2013-04-29 13:32:00,71.6,58.3,29.93,SSW,193,4.0,7.0,63,0.00,,,0.00,Wunderground v.1.15,2013-04-29 18:32:00,
2013-04-29 13:37:00,71.4,59.4,29.93,SW,221,4.0,7.0,66,0.00,,,0.00,Wunderground v.1.15,2013-04-29 18:37:00,
2013-04-29 13:43:00,71.9,59.5,29.93,WNW,293,3.0,5.0,65,0.00,,,0.00,Wunderground v.1.15,2013-04-29 18:43:00,
2013-04-29 13:48:00,72.5,59.2,29.93,SE,135,2.0,7.0,63,0.00,,,0.00,Wunderground v.1.15,2013-04-29 18:48:00,
2013-04-29 13:53:00,72.3,59.0,29.93,SSW,210,3.0,7.0,63,0.00,,,0.00,Wunderground v.1.15,2013-04-29 18:53:00,
2013-04-29 13:58:00,72.3,59.4,29.92,SE,132,4.0,7.0,64,0.00,,,0.00,Wunderground v.1.15,2013-04-29 18:58:00,
2013-04-29 14:04:00,72.0,58.3,29.92,WNW,288,5.0,8.0,62,0.00,,,0.00,Wunderground v.1.15,2013-04-29 19:04:00,
2013-04-29 14:09:00,72.1,59.2,29.92,SSE,150,4.0,8.0,64,0.00,,,0.00,Wunderground v.1.15,2013-04-29 19:09:00,
2013-04-29 14:14:00,72.8,59.9,29.92,SE,130,3.0,5.0,64,0.00,,,0.00,Wunderground v.1.15,2013-04-29 19:14:00,
2013-04-29 14:20:00,72.7,58.9,29.92,SSW,212,3.0,3.0,62,0.00,,,0.00,Wunderground v.1.15,2013-04-29 19:20:00,
2013-04-29 14:25:00,72.8,59.5,29.92,SSE,162,3.0,5.0,63,0.00,,,0.00,Wunderground v.1.15,2013-04-29 19:25:00,
2013-04-29 14:30:00,72.9,58.7,29.91,SSW,193,3.0,4.0,61,0.00,,,0.00,Wunderground v.1.15,2013-04-29 19:30:00,
2013-04-29 14:35:00,73.1,59.8,29.91,SW,224,3.0,7.0,63,0.00,,,0.00,Wunderground v.1.15,2013-04-29 19:35:00,
2013-04-29 14:41:00,73.2,59.4,29.91,SSE,158,3.0,5.0,62,0.00,,,0.00,Wunderground v.1.15,2013-04-29 19:41:00,
2013-04-29 14:47:00,73.2,59.4,29.91,WSW,257,3.0,5.0,62,0.00,,,0.00,Wunderground v.1.15,2013-04-29 19:47:00,
2013-04-29 14:52:00,73.3,59.0,29.91,WNW,287,3.0,5.0,61,0.00,,,0.00,Wunderground v.1.15,2013-04-29 19:52:00,
2013-04-29 14:58:00,73.4,59.1,29.90,ESE,105,4.0,8.0,61,0.00,,,0.00,Wunderground v.1.15,2013-04-29 19:58:00,
2013-04-29 15:03:00,73.4,58.7,29.90,West,270,4.0,7.0,60,0.00,,,0.00,Wunderground v.1.15,2013-04-29 20:03:00,
2013-04-29 15:09:00,73.4,59.6,29.90,SW,215,4.0,7.0,62,0.00,,,0.00,Wunderground v.1.15,2013-04-29 20:09:00,
2013-04-29 15:14:00,73.6,59.3,29.90,SSW,197,3.0,8.0,61,0.00,,,0.00,Wunderground v.1.15,2013-04-29 20:14:00,
2013-04-29 15:19:00,73.6,58.9,29.89,West,264,3.0,8.0,60,0.00,,,0.00,Wunderground v.1.15,2013-04-29 20:19:00,
2013-04-29 15:24:00,73.5,59.2,29.89,ESE,116,4.0,6.0,61,0.00,,,0.00,Wunderground v.1.15,2013-04-29 20:24:00,
2013-04-29 15:29:00,73.7,59.4,29.89,West,278,4.0,6.0,61,0.00,,,0.00,Wunderground v.1.15,2013-04-29 20:29:00,
2013-04-29 15:35:00,73.9,59.1,29.89,South,183,3.0,9.0,60,0.00,,,0.00,Wunderground v.1.15,2013-04-29 20:35:00,
2013-04-29 15:40:00,74.0,59.7,29.89,West,274,4.0,4.0,61,0.00,,,0.00,Wunderground v.1.15,2013-04-29 20:40:00,
2013-04-29 15:45:00,74.4,59.6,29.88,SSE,163,3.0,8.0,60,0.00,,,0.00,Wunderground v.1.15,2013-04-29 20:45:00,
2013-04-29 15:51:00,74.3,59.0,29.88,SE,136,3.0,5.0,59,0.00,,,0.00,Wunderground v.1.15,2013-04-29 20:51:00,
2013-04-29 15:56:00,74.2,58.9,29.88,SE,131,4.0,6.0,59,0.00,,,0.00,Wunderground v.1.15,2013-04-29 20:56:00,
2013-04-29 16:01:00,74.2,59.9,29.88,East,101,4.0,9.0,61,0.00,,,0.00,Wunderground v.1.15,2013-04-29 21:01:00,
2013-04-29 16:06:00,74.6,59.8,29.88,SSW,199,3.0,9.0,60,0.00,,,0.00,Wunderground v.1.15,2013-04-29 21:06:00,
2013-04-29 16:11:00,74.7,58.9,29.88,WSW,243,3.0,3.0,58,0.00,,,0.00,Wunderground v.1.15,2013-04-29 21:11:00,
2013-04-29 16:16:00,74.8,59.5,29.87,SSE,149,2.0,5.0,59,0.00,,,0.00,Wunderground v.1.15,2013-04-29 21:16:00,
2013-04-29 16:21:00,74.9,60.1,29.87,ENE,59,3.0,3.0,60,0.00,,,0.00,Wunderground v.1.15,2013-04-29 21:21:00,
2013-04-29 16:26:00,75.0,58.7,29.87,SE,144,3.0,6.0,57,0.00,,,0.00,Wunderground v.1.15,2013-04-29 21:26:00,
2013-04-29 16:32:00,75.0,59.7,29.87,ESE,121,3.0,7.0,59,0.00,,,0.00,Wunderground v.1.15,2013-04-29 21:32:00,
2013-04-29 16:37:00,74.9,59.1,29.87,ESE,122,4.0,7.0,58,0.00,,,0.00,Wunderground v.1.15,2013-04-29 21:37:00,
2013-04-29 16:42:00,74.9,59.6,29.86,SSE,150,3.0,5.0,59,0.00,,,0.00,Wunderground v.1.15,2013-04-29 21:42:00,
2013-04-29 16:47:00,75.3,60.5,29.87,West,262,2.0,11.0,60,0.00,,,0.00,Wunderground v.1.15,2013-04-29 21:47:00,
2013-04-29 16:52:00,75.4,60.1,29.87,SE,129,2.0,4.0,59,0.00,,,0.00,Wunderground v.1.15,2013-04-29 21:52:00,
2013-04-29 16:58:00,75.1,59.3,29.87,SSW,205,3.0,9.0,58,0.00,,,0.00,Wunderground v.1.15,2013-04-29 21:58:00,
2013-04-29 17:04:00,75.2,59.9,29.87,SE,134,3.0,6.0,59,0.00,,,0.00,Wunderground v.1.15,2013-04-29 22:04:00,
2013-04-29 17:09:00,75.1,59.3,29.87,SSE,155,3.0,6.0,58,0.00,,,0.00,Wunderground v.1.15,2013-04-29 22:09:00,
2013-04-29 17:14:00,75.3,59.5,29.87,ESE,107,2.0,3.0,58,0.00,,,0.00,Wunderground v.1.15,2013-04-29 22:14:00,
2013-04-29 17:19:00,75.5,60.2,29.87,ESE,122,1.0,3.0,59,0.00,,,0.00,Wunderground v.1.15,2013-04-29 22:19:00,
2013-04-29 17:24:00,75.4,60.5,29.87,ESE,120,2.0,7.0,60,0.00,,,0.00,Wunderground v.1.15,2013-04-29 22:24:00,
2013-04-29 17:30:00,75.3,60.0,29.87,South,179,2.0,2.0,59,0.00,,,0.00,Wunderground v.1.15,2013-04-29 22:30:00,
2013-04-29 17:35:00,75.2,59.4,29.87,West,259,2.0,6.0,58,0.00,,,0.00,Wunderground v.1.15,2013-04-29 22:35:00,
2013-04-29 17:40:00,74.7,59.4,29.86,SSE,156,3.0,3.0,59,0.00,,,0.00,Wunderground v.1.15,2013-04-29 22:40:00,
2013-04-29 17:45:00,74.6,59.3,29.86,ESE,120,3.0,4.0,59,0.00,,,0.00,Wunderground v.1.15,2013-04-29 22:45:00,
2013-04-29 17:50:00,74.5,59.7,29.86,ENE,75,2.0,2.0,60,0.00,,,0.00,Wunderground v.1.15,2013-04-29 22:50:00,
2013-04-29 17:56:00,74.5,60.2,29.87,East,101,2.0,3.0,61,0.00,,,0.00,Wunderground v.1.15,2013-04-29 22:56:00,
2013-04-29 18:02:00,74.7,60.4,29.86,ENE,59,1.0,4.0,61,0.00,,,0.00,Wunderground v.1.15,2013-04-29 23:02:00,
2013-04-29 18:07:00,74.5,59.2,29.86,East,84,2.0,4.0,59,0.00,,,0.00,Wunderground v.1.15,2013-04-29 23:07:00,
2013-04-29 18:12:00,74.2,59.4,29.86,ESE,109,1.0,2.0,60,0.00,,,0.00,Wunderground v.1.15,2013-04-29 23:12:00,
2013-04-29 18:17:00,74.0,60.2,29.86,SE,143,2.0,2.0,62,0.00,,,0.00,Wunderground v.1.15,2013-04-29 23:17:00,
2013-04-29 18:22:00,73.6,59.3,29.86,SE,133,2.0,5.0,61,0.00,,,0.00,Wunderground v.1.15,2013-04-29 23:22:00,
2013-04-29 18:27:00,73.3,59.5,29.86,SSE,155,3.0,5.0,62,0.00,,,0.00,Wunderground v.1.15,2013-04-29 23:27:00,
2013-04-29 18:32:00,73.2,58.9,29.86,SE,131,2.0,3.0,61,0.00,,,0.00,Wunderground v.1.15,2013-04-29 23:32:00,
2013-04-29 18:38:00,73.0,59.2,29.86,ESE,103,1.0,3.0,62,0.00,,,0.00,Wunderground v.1.15,2013-04-29 23:38:00,
2013-04-29 18:43:00,72.9,60.0,29.86,South,176,1.0,2.0,64,0.00,,,0.00,Wunderground v.1.15,2013-04-29 23:43:00,
2013-04-29 18:48:00,72.7,58.9,29.86,WSW,240,1.0,3.0,62,0.00,,,0.00,Wunderground v.1.15,2013-04-29 23:48:00,
2013-04-29 18:54:00,72.2,58.9,29.86,SSE,153,1.0,3.0,63,0.00,,,0.00,Wunderground v.1.15,2013-04-29 23:54:00,
2013-04-29 18:59:00,71.8,59.0,29.86,ENE,77,2.0,6.0,64,0.00,,,0.00,Wunderground v.1.15,2013-04-29 23:59:00,
2013-04-29 19:04:00,71.2,58.8,29.86,SE,143,1.0,4.0,65,0.00,,,0.00,Wunderground v.1.15,2013-04-30 00:04:00,
2013-04-29 19:09:00,70.8,58.4,29.85,ESE,117,1.0,4.0,65,0.00,,,0.00,Wunderground v.1.15,2013-04-30 00:09:00,
2013-04-29 19:15:00,69.9,58.9,29.85,East,93,1.0,2.0,68,0.00,,,0.00,Wunderground v.1.15,2013-04-30 00:15:00,
2013-04-29 19:20:00,69.1,58.9,29.85,ENE,72,1.0,1.0,70,0.00,,,0.00,Wunderground v.1.15,2013-04-30 00:20:00,
2013-04-29 19:26:00,68.4,58.2,29.85,SE,124,0.0,1.0,70,0.00,,,0.00,Wunderground v.1.15,2013-04-30 00:26:00,
2013-04-29 19:31:00,67.8,58.4,29.85,ENE,68,0.0,0.0,72,0.00,,,0.00,Wunderground v.1.15,2013-04-30 00:31:00,
2013-04-29 19:36:00,67.1,58.2,29.85,ESE,106,0.0,0.0,73,0.00,,,0.00,Wunderground v.1.15,2013-04-30 00:36:00,
2013-04-29 19:42:00,66.2,57.7,29.85,SE,139,0.0,1.0,74,0.00,,,0.00,Wunderground v.1.15,2013-04-30 00:42:00,
2013-04-29 19:47:00,65.5,57.7,29.86,ESE,110,0.0,2.0,76,0.00,,,0.00,Wunderground v.1.15,2013-04-30 00:47:00,
2013-04-29 19:53:00,64.6,57.2,29.86,ESE,114,0.0,0.0,77,0.00,,,0.00,Wunderground v.1.15,2013-04-30 00:53:00,
2013-04-29 19:58:00,63.9,57.3,29.86,SE,124,0.0,0.0,79,0.00,,,0.00,Wunderground v.1.15,2013-04-30 00:58:00,
2013-04-29 20:04:00,63.2,57.3,29.86,SE,124,0.0,0.0,81,0.00,,,0.00,Wunderground v.1.15,2013-04-30 01:04:00,
2013-04-29 20:09:00,62.7,57.1,29.86,ESE,105,0.0,0.0,82,0.00,,,0.00,Wunderground v.1.15,2013-04-30 01:09:00,
2013-04-29 20:14:00,62.2,56.6,29.86,SSE,148,0.0,0.0,82,0.00,,,0.00,Wunderground v.1.15,2013-04-30 01:14:00,
2013-04-29 20:20:00,61.8,56.6,29.86,SE,134,0.0,0.0,83,0.00,,,0.00,Wunderground v.1.15,2013-04-30 01:20:00,
2013-04-29 20:25:00,61.4,56.5,29.86,SE,134,0.0,0.0,84,0.00,,,0.00,Wunderground v.1.15,2013-04-30 01:25:00,
2013-04-29 20:30:00,61.0,56.1,29.86,SE,134,0.0,0.0,84,0.00,,,0.00,Wunderground v.1.15,2013-04-30 01:30:00,
2013-04-29 20:35:00,60.6,56.1,29.86,East,91,0.0,0.0,85,0.00,,,0.00,Wunderground v.1.15,2013-04-30 01:35:00,
2013-04-29 20:40:00,60.4,56.2,29.87,East,91,0.0,0.0,86,0.00,,,0.00,Wunderground v.1.15,2013-04-30 01:40:00,
2013-04-29 20:45:00,60.1,55.9,29.87,ESE,117,0.0,0.0,86,0.00,,,0.00,Wunderground v.1.15,2013-04-30 01:45:00,
2013-04-29 20:50:00,59.7,55.8,29.87,ESE,117,0.0,0.0,87,0.00,,,0.00,Wunderground v.1.15,2013-04-30 01:50:00,
2013-04-29 20:55:00,59.7,55.8,29.87,SSE,159,0.0,0.0,87,0.00,,,0.00,Wunderground v.1.15,2013-04-30 01:55:00,
2013-04-29 21:00:00,59.6,55.7,29.88,SSE,160,0.0,0.0,87,0.00,,,0.00,Wunderground v.1.15,2013-04-30 02:00:00,
2013-04-29 21:06:00,59.5,55.6,29.88,SSE,160,0.0,0.0,87,0.00,,,0.00,Wunderground v.1.15,2013-04-30 02:06:00,
2013-04-29 21:11:00,59.3,55.7,29.88,SSE,160,0.0,0.0,88,0.00,,,0.00,Wunderground v.1.15,2013-04-30 02:11:00,
2013-04-29 21:16:00,59.0,55.4,29.88,SSE,159,0.0,0.0,88,0.00,,,0.00,Wunderground v.1.15,2013-04-30 02:16:00,
2013-04-29 21:21:00,58.7,55.5,29.88,SSE,159,0.0,0.0,89,0.00,,,0.00,Wunderground v.1.15,2013-04-30 02:21:00,
2013-04-29 21:26:00,58.7,55.5,29.88,SE,144,0.0,0.0,89,0.00,,,0.00,Wunderground v.1.15,2013-04-30 02:26:00,
2013-04-29 21:32:00,58.7,55.8,29.88,SE,143,0.0,0.0,90,0.00,,,0.00,Wunderground v.1.15,2013-04-30 02:32:00,
2013-04-29 21:37:00,58.5,55.6,29.87,SE,144,0.0,0.0,90,0.00,,,0.00,Wunderground v.1.15,2013-04-30 02:37:00,
2013-04-29 21:42:00,58.2,55.3,29.87,SE,144,0.0,0.0,90,0.00,,,0.00,Wunderground v.1.15,2013-04-30 02:42:00,
2013-04-29 21:47:00,58.1,55.2,29.87,SE,143,0.0,0.0,90,0.00,,,0.00,Wunderground v.1.15,2013-04-30 02:47:00,
2013-04-29 21:53:00,57.8,54.9,29.88,SE,144,0.0,0.0,90,0.00,,,0.00,Wunderground v.1.15,2013-04-30 02:53:00,
2013-04-29 21:58:00,57.6,55.0,29.88,WSW,250,0.0,0.0,91,0.00,,,0.00,Wunderground v.1.15,2013-04-30 02:58:00,
2013-04-29 22:04:00,57.9,55.6,29.88,WSW,253,0.0,0.0,92,0.00,,,0.00,Wunderground v.1.15,2013-04-30 03:04:00,
2013-04-29 22:09:00,57.9,55.6,29.88,WSW,253,0.0,0.0,92,0.00,,,0.00,Wunderground v.1.15,2013-04-30 03:09:00,
2013-04-29 22:14:00,57.7,55.1,29.88,WSW,253,0.0,0.0,91,0.00,,,0.00,Wunderground v.1.15,2013-04-30 03:14:00,
2013-04-29 22:19:00,57.6,55.0,29.88,WSW,253,0.0,0.0,91,0.00,,,0.00,Wunderground v.1.15,2013-04-30 03:19:00,
2013-04-29 22:25:00,57.4,54.8,29.88,WSW,253,0.0,0.0,91,0.00,,,0.00,Wunderground v.1.15,2013-04-30 03:25:00,
2013-04-29 22:30:00,57.2,54.9,29.88,WSW,252,0.0,0.0,92,0.00,,,0.00,Wunderground v.1.15,2013-04-30 03:30:00,
2013-04-29 22:35:00,57.1,54.8,29.87,WSW,252,0.0,0.0,92,0.00,,,0.00,Wunderground v.1.15,2013-04-30 03:35:00,
2013-04-29 22:41:00,56.9,54.6,29.88,WSW,252,0.0,0.0,92,0.00,,,0.00,Wunderground v.1.15,2013-04-30 03:41:00,
2013-04-29 22:47:00,56.7,54.4,29.88,WSW,253,0.0,0.0,92,0.00,,,0.00,Wunderground v.1.15,2013-04-30 03:47:00,
2013-04-29 22:52:00,56.7,54.4,29.88,WSW,253,0.0,0.0,92,0.00,,,0.00,Wunderground v.1.15,2013-04-30 03:52:00,
2013-04-29 22:57:00,56.5,54.2,29.88,WSW,253,0.0,0.0,92,0.00,,,0.00,Wunderground v.1.15,2013-04-30 03:57:00,
2013-04-29 23:01:00,56.5,54.5,29.88,WSW,253,0.0,0.0,93,0.00,,,0.00,Wunderground v.1.15,2013-04-30 04:01:00,
2013-04-29 23:02:00,56.6,54.6,29.88,WSW,253,0.0,0.0,93,0.00,,,0.00,Wunderground v.1.15,2013-04-30 04:02:00,
2013-04-29 23:03:00,56.6,54.6,29.88,WSW,253,0.0,0.0,93,0.00,,,0.00,Wunderground v.1.15,2013-04-30 04:03:00,
2013-04-29 23:06:00,56.6,54.6,29.88,WSW,253,0.0,0.0,93,0.00,,,0.00,Wunderground v.1.15,2013-04-30 04:06:00,
2013-04-29 23:11:00,56.5,54.5,29.88,SE,133,0.0,0.0,93,0.00,,,0.00,Wunderground v.1.15,2013-04-30 04:11:00,
2013-04-29 23:16:00,56.4,54.4,29.88,SE,133,0.0,0.0,93,0.00,,,0.00,Wunderground v.1.15,2013-04-30 04:16:00,
2013-04-29 23:21:00,56.2,54.2,29.88,SE,132,0.0,0.0,93,0.00,,,0.00,Wunderground v.1.15,2013-04-30 04:21:00,
2013-04-29 23:27:00,56.1,54.1,29.88,SE,132,0.0,0.0,93,0.00,,,0.00,Wunderground v.1.15,2013-04-30 04:27:00,
2013-04-29 23:32:00,56.1,54.4,29.88,SE,133,0.0,0.0,94,0.00,,,0.00,Wunderground v.1.15,2013-04-30 04:32:00,
2013-04-29 23:37:00,56.0,54.3,29.88,SE,132,0.0,0.0,94,0.00,,,0.00,Wunderground v.1.15,2013-04-30 04:37:00,
2013-04-29 23:43:00,56.0,54.3,29.88,SE,133,0.0,0.0,94,0.00,,,0.00,Wunderground v.1.15,2013-04-30 04:43:00,
2013-04-29 23:48:00,55.9,54.2,29.88,SE,133,0.0,0.0,94,0.00,,,0.00,Wunderground v.1.15,2013-04-30 04:48:00,
2013-04-29 23:53:00,55.8,54.1,29.88,SE,133,0.0,0.0,94,0.00,,,0.00,Wunderground v.1.15,2013-04-30 04:53:00,
2013-04-29 23:58:00,55.7,54.0,29.88,SE,132,0.0,0.0,94,0.00,,,0.00,Wunderground v.1.15,2013-04-30 04:58:00,